Temp
-13 -13 -13 -13 -14 -13 -13 -14 -14 -15 -14 -15 -15 -15 -15 -16 -16 -15 -16 -14 -13 -13 -13 -11 -12 -11 -10 -11 -10 -11 -11 -11 -11 -12 -13 -14 -14 -13 -12 -12 -10 -10 -10 -10
-14 -14 -14 -14 -14 -13 -13 -14 -14 -15 -15 -14 -15 -15 -16 -17 -16 -16 -16 -15 -14 -14 -13 -13 -13 -12 -12 -11 -12 -12 -15 -14 -14 -14 -13 -13 -13 -11 -11 -11 -11 -10 -10 -10
-14 -15 -15 -15 -14 -14 -14 -14 -15 -16 -16 -15 -15 -15 -15 -16 -16 -16 -15 -15 -15 -15 -15 -14 -13 -14 -14 -13 -15 -16 -16 -15 -13 -12 -12 -12 -11 -11 -11 -11 -11 -11 -11 -11
-15 -15 -16 -15 -14 -14 -14 -15 -16 -16 -16 -16 -16 -15 -15 -15 -15 -16 -16 -14 -14 -14 -14 -14 -13 -13 -14 -15 -15 -15 -14 -14 -14 -12 -12 -12 -12 -11 -11 -11 -11 -11 -11 -11
-15 -15 -16 -15 -15 -15 -14 -15 -16 -16 -16 -16 -16 -15 -15 -15 -15 -14 -15 -16 -16 -15 -15 -15 -15 -15 -15 -15 -14 -14 -13 -13 -13 -13 -13 -13 -12 -12 -11 -12 -12 -12 -12 -12
-15 -16 -16 -15 -16 -15 -14 -15 -15 -16 -16 -16 -16 -15 -15 -15 -15 -16 -15 -15 -15 -15 -15 -15 -15 -15 -15 -14 -14 -13 -13 -13 -13 -13 -13 -13 -13 -13 -12 -12 -12 -12 -12 -11
-15 -15 -15 -15 -16 -15 -15 -16 -16 -16 -16 -15 -15 -15 -15 -15 -15 -15 -16 -15 -15 -15 -15 -15 -15 -14 -14 -14 -14 -14 -14 -14 -14 -14 -13 -13 -13 -13 -12 -12 -12 -12 -11 -11
-16 -16 -16 -16 -16 -16 -16 -16 -16 -15 -15 -15 -15 -15 -15 -15 -15 -15 -15 -15 -15 -15 -15 -15 -15 -15 -15 -15 -15 -14 -14 -13 -14 -13 -13 -13 -12 -12 -12 -12 -12 -11 -11 -11
-16 -17 -17 -17 -17 -17 -16 -16 -16 -16 -16 -16 -16 -15 -15 -15 -15 -15 -15 -15 -16 -16 -15 -15 -15 -15 -15 -15 -14 -14 -14 -14 -13 -14 -14 -14 -13 -13 -13 -12 -11 -11 -11 -10
-17 -17 -17 -17 -17 -17 -17 -17 -17 -17 -17 -16 -16 -16 -15 -16 -16 -15 -15 -15 -15 -15 -15 -15 -15 -15 -15 -15 -15 -14 -14 -15 -15 -15 -14 -14 -14 -13 -13 -12 -11 -10 -10 -10
-17 -17 -17 -17 -17 -17 -17 -17 -17 -17 -17 -17 -17 -16 -16 -16 -16 -16 -16 -16 -16 -16 -16 -16 -16 -16 -16 -16 -16 -15 -15 -15 -15 -15 -14 -14 -14 -13 -12 -12 -11 -11 -11 -10
-17 -17 -17 -17 -17 -17 -17 -17 -17 -17 -17 -17 -17 -17 -17 -16 -16 -16 -16 -16 -16 -16 -16 -16 -16 -16 -16 -16 -15 -15 -15 -15 -14 -14 -14 -13 -13 -12 -12 -12 -12 -11 -11 -11
-16 -16 -17 -17 -17 -17 -17 -16 -16 -17 -17 -17 -17 -16 -17 -17 -17 -17 -17 -17 -16 -16 -16 -16 -16 -16 -16 -16 -15 -15 -15 -14 -14 -14 -14 -13 -13 -13 -12 -12 -11 -11 -11 -11
-17 -16 -16 -16 -16 -17 -17 -17 -17 -17 -16 -16 -16 -16 -16 -17 -17 -17 -17 -17 -17 -17 -17 -16 -16 -16 -16 -15 -15 -15 -15 -14 -14 -13 -13 -13 -13 -12 -11 -11 -11 -12 -11 -11
-17 -17 -17 -17 -17 -17 -17 -16 -16 -16 -16 -15 -16 -16 -16 -16 -17 -17 -17 -17 -17 -17 -17 -17 -17 -16 -16 -16 -15 -15 -15 -14 -14 -14 -13 -13 -12 -12 -11 -12 -12 -12 -11 -12
-17 -17 -17 -17 -17 -16 -16 -16 -16 -16 -16 -16 -16 -15 -16 -16 -17 -17 -17 -17 -17 -17 -17 -17 -17 -17 -16 -16 -16 -16 -15 -15 -14 -13 -13 -13 -12 -12 -12 -12 -12 -12 -12 -12
-17 -17 -17 -17 -16 -16 -16 -16 -16 -16 -16 -16 -15 -16 -15 -16 -16 -17 -17 -17 -17 -17 -18 -17 -17 -17 -17 -17 -16 -16 -15 -14 -14 -13 -13 -13 -12 -13 -12 -12 -12 -12 -12 -12
-18 -17 -17 -17 -17 -17 -17 -16 -16 -16 -16 -16 -16 -16 -16 -16 -16 -17 -17 -17 -17 -18 -18 -18 -18 -17 -17 -17 -16 -15 -15 -14 -14 -13 -13 -13 -13 -13 -13 -13 -12 -12 -12 -12
-18 -18 -18 -17 -17 -17 -17 -17 -16 -16 -16 -16 -16 -16 -16 -17 -17 -17 -17 -18 -18 -18 -18 -18 -18 -17 -17 -16 -16 -15 -15 -14 -14 -13 -13 -13 -13 -13 -13 -12 -12 -12 -11 -12
-18 -18 -18 -18 -18 -18 -17 -17 -17 -17 -17 -16 -16 -17 -17 -17 -17 -17 -17 -18 -18 -18 -18 -18 -18 -18 -17 -17 -16 -15 -15 -14 -13 -13 -13 -13 -13 -13 -12 -12 -12 -12 -12 -12
-18 -18 -18 -18 -18 -18 -17 -17 -17 -17 -17 -17 -17 -17 -18 -17 -18 -18 -18 -18 -18 -18 -18 -18 -18 -18 -17 -16 -16 -15 -14 -13 -13 -13 -13 -13 -13 -12 -12 -12 -12 -12 -13 -13
-18 -18 -18 -18 -18 -18 -18 -18 -18 -18 -18 -18 -18 -17 -18 -18 -18 -18 -18 -18 -18 -18 -18 -18 -18 -17 -17 -16 -15 -14 -14 -14 -13 -13 -13 -13 -13 -12 -12 -12 -13 -13 -13 -14
-18 -18 -18 -18 -18 -18 -18 -18 -18 -19 -19 -18 -18 -18 -18 -18 -18 -18 -19 -19 -19 -18 -18 -18 -18 -17 -16 -15 -15 -14 -14 -14 -13 -13 -13 -13 -13 -13 -12 -13 -13 -14 -14 -15
-18 -18 -18 -18 -18 -19 -19 -19 -19 -19 -19 -19 -19 -19 -19 -19 -19 -19 -19 -19 -19 -19 -18 -18 -17 -17 -16 -15 -15 -14 -14 -14 -13 -13 -13 -13 -13 -13 -13 -14 -14 -14 -15 -16
-19 -19 -19 -19 -19 -19 -19 -19 -19 -20 -19 -19 -19 -19 -19 -19 -19 -19 -19 -19 -19 -18 -18 -17 -17 -17 -16 -15 -15 -15 -14 -14 -13 -14 -13 -13 -13 -13 -14 -14 -14 -15 -15 -16
-19 -19 -19 -18 -19 -19 -19 -19 -19 -20 -20 -19 -19 -19 -19 -19 -19 -19 -19 -18 -18 -18 -18 -18 -17 -16 -16 -15 -15 -14 -14 -14 -14 -14 -13 -13 -13 -14 -14 -15 -15 -15 -16 -16
Height
5720 5723 5727 5726 5727 5729 5732 5732 5732 5732 5731 5730 5730 5730 5728 5729 5735 5742 5754 5762 5766 5771 5782 5790 5789 5792 5790 5797 5798 5799 5799 5802 5804 5805 5810 5813 5816 5819 5820 5821 5823 5823 5823 5824
5715 5719 5720 5718 5721 5725 5727 5728 5729 5728 5729 5729 5729 5730 5731 5732 5737 5743 5753 5756 5757 5767 5773 5781 5781 5779 5782 5785 5787 5789 5791 5796 5799 5801 5804 5806 5808 5810 5812 5813 5814 5815 5815 5814
5709 5712 5710 5713 5716 5719 5722 5724 5724 5726 5726 5727 5728 5729 5731 5734 5736 5741 5747 5753 5757 5761 5765 5772 5779 5778 5777 5779 5780 5784 5787 5790 5794 5796 5796 5797 5798 5801 5802 5803 5804 5804 5804 5804
5701 5704 5705 5708 5711 5714 5718 5719 5720 5722 5723 5725 5726 5728 5729 5733 5736 5739 5744 5748 5754 5755 5760 5764 5769 5769 5773 5773 5776 5779 5780 5783 5786 5787 5788 5790 5791 5793 5794 5795 5794 5794 5794 5793
5698 5698 5699 5702 5708 5709 5714 5714 5716 5718 5720 5722 5724 5726 5728 5730 5733 5736 5740 5745 5748 5752 5755 5758 5760 5764 5767 5768 5771 5774 5776 5777 5778 5777 5780 5780 5780 5781 5782 5783 5782 5781 5781 5781
5688 5690 5692 5699 5700 5704 5707 5710 5712 5715 5717 5718 5720 5724 5727 5730 5731 5733 5737 5742 5746 5748 5751 5753 5756 5758 5761 5763 5764 5767 5768 5769 5770 5770 5769 5769 5768 5768 5769 5769 5769 5768 5768 5766
5682 5684 5689 5691 5694 5699 5703 5705 5707 5710 5711 5716 5717 5721 5724 5727 5730 5732 5735 5738 5741 5744 5747 5749 5750 5752 5754 5756 5758 5758 5758 5758 5760 5759 5759 5760 5760 5759 5759 5758 5757 5756 5756 5754
5674 5678 5682 5685 5688 5694 5697 5700 5702 5704 5706 5711 5713 5714 5720 5725 5727 5729 5731 5733 5735 5737 5739 5741 5743 5744 5746 5748 5749 5750 5750 5751 5752 5751 5751 5751 5750 5750 5749 5747 5745 5745 5744 5743
5669 5671 5675 5678 5682 5688 5691 5692 5697 5699 5701 5704 5706 5710 5714 5716 5719 5720 5722 5724 5726 5728 5731 5734 5735 5736 5737 5738 5738 5738 5739 5741 5741 5741 5741 5740 5739 5737 5736 5733 5731 5730 5731 5730
5662 5665 5669 5673 5677 5681 5684 5688 5690 5692 5694 5697 5698 5702 5707 5709 5710 5711 5713 5715 5718 5721 5723 5724 5725 5727 5728 5730 5730 5730 5730 5730 5729 5728 5728 5728 5726 5725 5722 5721 5719 5718 5716 5713
5657 5660 5665 5667 5670 5675 5678 5680 5683 5686 5688 5689 5693 5695 5698 5701 5703 5704 5705 5706 5708 5709 5711 5713 5715 5716 5718 5720 5720 5721 5721 5721 5720 5719 5718 5716 5713 5710 5708 5705 5703 5702 5700 5698
5652 5655 5657 5661 5665 5667 5669 5672 5676 5678 5682 5683 5685 5688 5690 5692 5694 5695 5696 5697 5699 5701 5703 5704 5707 5708 5709 5709 5710 5710 5709 5708 5707 5707 5705 5703 5701 5698 5696 5693 5690 5689 5687 5684
5646 5649 5653 5657 5659 5661 5663 5666 5669 5671 5675 5676 5677 5681 5682 5684 5685 5686 5687 5689 5690 5692 5693 5694 5696 5697 5697 5698 5698 5697 5696 5695 5695 5694 5692 5691 5689 5686 5683 5681 5679 5676 5672 5669
5641 5643 5646 5649 5652 5655 5657 5660 5662 5664 5666 5670 5670 5673 5673 5674 5676 5677 5679 5680 5682 5683 5684 5684 5685 5687 5687 5688 5688 5688 5686 5685 5684 5684 5681 5679 5676 5674 5671 5668 5665 5661 5658 5654
5633 5635 5638 5642 5645 5648 5652 5654 5656 5659 5660 5661 5664 5666 5666 5666 5666 5667 5669 5671 5672 5673 5674 5675 5676 5677 5677 5677 5677 5676 5675 5674 5672 5671 5668 5665 5663 5660 5657 5655 5652 5648 5644 5640
5627 5631 5635 5637 5640 5643 5645 5647 5650 5651 5652 5655 5657 5659 5660 5657 5656 5657 5658 5660 5662 5663 5665 5666 5667 5667 5667 5667 5667 5666 5665 5664 5662 5659 5656 5653 5649 5647 5645 5642 5638 5634 5630 5625
5622 5626 5629 5633 5635 5637 5639 5642 5642 5643 5645 5647 5650 5652 5650 5650 5648 5648 5649 5650 5652 5654 5655 5657 5658 5658 5657 5656 5655 5655 5654 5653 5650 5647 5645 5642 5639 5638 5634 5630 5627 5622 5617 5611
5617 5621 5624 5627 5629 5630 5633 5635 5635 5637 5638 5639 5641 5641 5641 5641 5641 5641 5641 5642 5643 5645 5646 5647 5646 5646 5645 5644 5642 5642 5641 5640 5638 5636 5635 5632 5630 5627 5624 5620 5615 5609 5602 5594
5612 5615 5617 5620 5622 5624 5625 5628 5629 5630 5632 5631 5632 5632 5633 5633 5633 5633 5634 5635 5635 5636 5636 5637 5636 5635 5633 5632 5631 5630 5630 5629 5627 5627 5625 5623 5620 5618 5614 5609 5603 5595 5587 5577
5607 5609 5612 5614 5616 5617 5618 5620 5622 5624 5624 5624 5624 5624 5625 5626 5626 5627 5627 5627 5626 5627 5627 5627 5626 5625 5623 5622 5621 5621 5620 5619 5619 5618 5617 5614 5611 5607 5603 5597 5590 5582 5572 5561
5601 5603 5606 5607 5611 5612 5612 5614 5615 5618 5620 5618 5618 5618 5619 5621 5622 5621 5621 5621 5621 5620 5620 5619 5617 5615 5614 5613 5612 5611 5611 5612 5612 5611 5608 5605 5602 5598 5592 5586 5578 5568 5555 5543
5596 5598 5601 5603 5605 5607 5607 5609 5611 5611 5610 5611 5611 5612 5613 5614 5614 5615 5614 5614 5614 5613 5613 5612 5610 5607 5606 5605 5604 5604 5604 5605 5604 5603 5601 5598 5593 5588 5583 5575 5565 5552 5540 5524
5592 5595 5596 5600 5601 5602 5603 5604 5605 5606 5606 5606 5606 5607 5607 5608 5608 5607 5607 5607 5607 5606 5606 5604 5602 5599 5597 5596 5597 5597 5598 5598 5597 5596 5594 5590 5585 5580 5572 5563 5551 5539 5525 5511
5586 5589 5592 5595 5597 5597 5599 5600 5601 5602 5601 5601 5601 5602 5602 5603 5602 5602 5601 5600 5599 5598 5597 5595 5592 5589 5588 5589 5590 5591 5591 5591 5591 5589 5586 5583 5577 5569 5561 5551 5538 5526 5515 5502
5582 5585 5588 5590 5591 5593 5594 5595 5596 5597 5596 5597 5597 5597 5597 5596 5595 5594 5593 5593 5592 5590 5587 5585 5583 5582 5583 5583 5584 5585 5585 5585 5584 5582 5580 5575 5568 5560 5552 5541 5529 5518 5507 5497
5576 5580 5583 5585 5587 5589 5590 5590 5590 5591 5591 5591 5592 5592 5590 5589 5588 5587 5586 5585 5583 5581 5579 5578 5578 5578 5578 5578 5579 5578 5580 5580 5579 5576 5573 5567 5560 5552 5543 5533 5523 5511 5503 5493
Wind_Speed
24 27 22 25 23 24 18 14 8 10 15 14 19 25 17 25 42 62 44 46 47 47 54 54 48 51 55 59 62 53 38 40 45 39 38 35 34 36 39 42 46 48 49 49
23 21 25 29 23 22 17 12 10 11 16 17 13 18 11 19 25 32 40 38 35 29 33 37 27 26 24 47 42 37 29 33 37 36 36 37 38 41 43 44 46 47 49 49
21 24 31 27 25 22 17 16 13 11 16 19 16 18 16 24 26 23 42 33 25 33 17 19 25 21 24 24 24 29 32 34 33 33 35 39 44 46 46 47 48 48 49 49
24 28 30 27 26 23 19 18 18 18 19 20 21 16 16 27 29 18 24 34 32 29 30 23 26 24 28 25 32 32 34 36 38 38 38 41 43 45 47 47 48 50 50 50
22 28 30 31 24 25 19 23 22 22 24 26 24 19 16 17 22 24 23 20 18 18 21 22 20 21 23 25 34 37 40 39 38 37 38 40 43 46 48 48 48 49 50 51
28 30 32 26 28 25 23 24 25 26 27 30 28 20 14 17 15 24 25 23 23 25 27 26 24 22 19 26 27 35 33 35 34 36 39 42 45 46 48 49 50 52 53 55
25 29 26 27 28 26 25 25 29 30 30 30 29 25 22 19 19 21 29 29 30 31 28 26 27 25 27 26 28 30 31 33 35 38 40 43 45 47 49 51 54 55 57 58
27 28 27 26 26 24 25 26 30 32 30 30 33 34 29 24 24 26 30 33 36 35 34 32 30 30 31 32 34 34 34 36 38 40 41 42 44 46 50 51 55 57 58 59
25 28 29 30 28 26 27 30 29 32 32 32 33 35 32 32 32 35 36 36 36 36 35 35 36 36 36 37 34 33 35 37 39 40 40 41 43 46 49 53 58 59 59 59
24 28 29 31 32 32 31 30 31 33 33 32 32 30 27 25 25 26 29 35 39 41 40 40 39 37 34 31 33 35 37 39 42 44 45 49 51 51 52 56 57 53 55 54
18 21 29 32 34 32 35 35 35 34 35 34 31 31 27 24 22 25 25 26 28 29 32 34 34 32 31 32 36 38 39 41 44 47 49 53 56 55 56 53 52 54 54 57
23 23 21 20 19 22 32 39 40 40 38 37 36 35 34 30 28 29 30 31 31 31 33 32 30 33 34 34 38 42 44 47 50 51 52 54 55 56 55 56 57 56 57 54
23 32 23 21 23 21 20 17 19 35 41 42 43 40 37 35 36 36 36 36 35 32 33 36 34 34 37 40 41 42 45 47 48 50 53 53 54 54 55 55 54 54 52 53
26 27 27 22 24 22 23 21 26 26 25 25 25 26 29 31 33 34 36 38 37 34 33 34 37 39 42 42 42 40 40 41 45 45 44 44 45 47 49 50 48 49 50 52
34 26 21 21 18 20 24 25 27 28 27 25 21 20 24 27 29 34 36 37 35 35 35 33 36 40 41 40 40 39 39 39 40 41 43 42 42 44 44 43 45 47 49 51
26 24 19 21 22 23 25 26 25 23 24 23 23 22 24 28 31 32 34 36 36 36 36 39 37 39 38 38 39 41 42 43 43 43 43 43 43 43 41 43 45 46 50 54
23 22 23 25 25 26 27 22 26 26 26 26 25 22 26 27 29 32 34 34 35 37 38 37 37 38 39 41 42 43 45 46 44 44 44 44 43 38 41 42 44 49 54 58
23 23 24 23 24 28 24 22 23 25 26 27 26 27 28 27 27 27 29 32 33 34 36 36 37 39 42 45 47 47 46 42 42 45 42 40 36 39 39 42 47 50 57 63
20 20 20 23 24 26 25 23 23 23 24 27 29 29 27 25 26 28 28 28 29 34 38 40 42 44 44 45 46 45 40 39 41 39 35 34 36 35 39 42 49 56 63 67
17 18 20 19 20 22 24 22 21 22 23 25 25 25 24 22 23 23 23 25 25 24 26 30 34 36 39 41 40 37 36 39 37 30 31 30 32 34 40 47 53 58 61 66
17 17 17 18 17 19 20 20 20 20 21 20 19 20 22 23 24 26 26 27 28 27 29 32 32 35 37 38 36 36 35 32 27 26 26 29 32 36 42 47 50 58 65 69
17 17 16 15 15 18 18 17 18 18 17 17 17 19 21 23 25 25 28 29 30 31 32 30 33 35 33 31 29 30 27 22 19 20 23 27 31 36 43 47 54 59 64 63
16 14 15 13 14 15 16 16 16 15 15 15 15 14 16 17 20 21 20 22 25 25 27 31 34 34 29 25 20 21 19 15 17 20 22 27 34 40 47 49 54 58 58 54
15 14 13 12 12 14 16 14 16 16 15 16 18 18 19 20 20 21 22 23 23 25 29 33 32 24 16 14 13 12 14 14 17 20 23 30 36 42 43 47 53 54 48 50
15 15 15 14 15 15 16 15 18 18 17 18 18 19 20 22 24 24 25 25 27 30 30 27 20 15 13 12 10 12 11 15 18 21 25 32 36 37 41 46 48 47 43 40
18 17 17 16 15 15 15 18 20 21 22 22 22 22 23 26 28 30 29 29 28 26 25 17 13 12 11 11 14 10 10 14 17 20 26 29 32 36 40 43 42 39 39 32
Wind_Direction
241 239 233 234 227 238 241 243 244 261 281 291 303 306 293 236 224 221 219 225 227 217 220 222 242 240 235 235 230 225 228 232 233 236 243 262 258 254 250 250 254 257 259 260
238 226 225 231 227 237 238 228 225 252 270 276 275 290 258 205 217 223 221 238 241 223 218 235 259 227 235 224 226 234 246 258 259 259 262 261 263 260 260 260 259 262 264 266
228 214 222 223 227 232 228 224 211 229 253 263 255 262 234 212 220 226 229 234 250 249 251 212 234 237 241 238 252 257 260 264 261 257 256 256 256 258 259 261 263 263 265 267
220 217 224 225 228 228 227 207 202 212 235 251 254 254 248 231 235 266 224 231 236 237 233 223 236 234 252 248 248 257 261 263 261 263 258 257 257 259 260 262 262 263 262 263
226 219 224 229 225 227 214 213 209 218 229 240 248 251 250 243 235 240 240 234 228 237 233 240 236 232 237 247 250 254 260 260 258 260 262 259 260 262 263 263 264 267 268 269
224 222 225 230 229 227 221 215 221 225 232 238 241 252 245 221 209 201 215 228 234 236 231 230 227 235 243 246 248 251 253 253 255 256 257 260 263 265 267 268 268 269 271 272
229 229 229 225 230 226 228 217 223 232 235 238 243 247 241 229 213 210 221 232 242 250 239 232 229 243 253 247 250 257 262 258 261 262 263 264 265 267 269 271 272 272 272 273
233 231 227 227 230 226 230 231 231 235 242 239 241 245 249 245 243 237 234 235 240 244 242 242 243 249 257 266 268 262 260 260 264 263 263 263 265 266 266 268 269 269 271 275
236 223 222 228 228 224 228 235 235 239 246 249 246 247 251 255 250 247 247 248 249 249 250 253 254 255 262 272 267 267 265 264 268 274 272 270 270 271 270 269 269 271 273 274
233 223 223 231 232 231 230 234 237 242 247 252 256 252 252 251 255 251 251 251 252 256 259 261 263 265 265 264 269 270 271 274 276 276 273 274 276 276 276 269 273 276 277 286
219 228 228 230 233 238 240 242 242 244 247 254 261 264 261 255 254 259 260 261 260 257 257 260 262 264 266 266 267 270 272 272 273 274 277 278 278 278 278 282 282 284 289 289
219 207 202 213 215 231 237 241 243 249 251 257 262 263 269 267 263 263 264 264 264 262 261 256 262 260 263 268 274 275 272 269 270 274 274 275 277 279 281 281 284 286 285 283
243 230 219 217 221 223 240 239 236 243 251 256 258 263 263 262 264 267 269 268 269 262 261 257 255 260 261 269 273 273 273 273 274 274 275 276 276 277 277 279 281 282 282 283
233 230 231 245 224 231 242 247 245 246 258 260 258 260 263 261 261 261 260 262 265 262 260 258 254 260 264 268 271 272 274 269 268 272 274 273 273 274 276 278 280 281 285 287
237 245 247 241 244 241 251 255 255 259 260 260 266 268 270 267 262 259 257 257 258 253 253 256 259 260 264 270 273 276 278 280 281 281 281 275 277 277 278 281 285 287 288 288
242 248 246 251 252 249 250 252 257 258 256 257 260 266 267 262 260 257 256 257 256 253 250 258 261 264 267 266 270 274 277 279 281 283 282 278 282 282 285 289 291 290 292 291
228 233 236 242 247 250 250 256 256 256 259 262 265 269 266 265 260 256 254 256 254 255 258 260 260 264 260 264 270 275 278 279 279 281 284 282 286 286 289 289 290 292 292 294
225 234 238 243 248 253 260 257 258 260 261 266 270 271 269 265 264 265 257 254 256 258 260 262 266 270 273 273 276 276 281 281 276 281 284 286 286 289 290 293 294 296 298 298
226 236 246 248 249 259 262 261 260 261 263 265 266 267 266 265 263 263 266 267 265 262 263 267 272 276 279 279 279 280 280 277 277 285 285 287 290 292 294 296 298 300 300 297
231 241 248 248 250 254 258 262 261 263 267 267 267 266 263 263 267 268 268 267 269 274 277 277 277 278 280 281 281 277 276 276 284 282 285 289 294 296 298 301 304 302 300 300
238 248 247 248 250 251 255 260 263 265 264 264 262 261 258 259 263 267 266 264 268 270 276 282 282 282 281 281 279 277 275 279 275 282 288 295 295 300 306 307 302 303 304 309
238 245 245 245 244 246 250 256 260 264 259 262 264 264 267 269 269 268 266 265 266 270 272 274 284 286 282 279 273 271 266 267 273 287 295 296 304 310 309 304 307 308 315 317
237 241 241 243 244 246 249 254 261 264 263 261 264 270 273 278 285 277 273 267 267 270 275 282 285 286 279 270 258 255 262 263 286 291 296 306 306 307 309 311 312 319 322 322
236 236 239 238 235 243 249 251 256 256 260 262 268 272 274 277 282 282 283 283 278 280 284 286 288 283 262 258 259 260 256 270 283 295 304 311 314 314 315 318 323 325 326 327
236 234 233 233 238 242 250 254 251 255 262 263 268 274 275 276 278 278 277 279 282 288 290 289 283 270 268 263 262 250 255 281 294 304 308 315 318 319 324 326 328 327 330 330
237 235 234 241 246 250 255 255 257 260 270 266 266 272 276 279 280 282 281 282 287 289 289 282 274 278 282 267 260 242 276 294 309 315 319 326 325 328 328 333 332 330 335 334